| time (UTC) | temp C | wind direction | speed KPH | gust KPH | rain 1hr cm | rain 24hr cm | rain mn cm | humidity % | barometer mb |
| 20260903122036 | 11 | 114 | 6.4 | 22.5 | 0.00 | 0.00 | 0.00 | 80 | 957.9 |
| 20260903121536 | 11 | 106 | 6.4 | 22.5 | 0.00 | 0.00 | 0.00 | 82 | 957.8 |
| 20260903121036 | 11 | 61 | 6.4 | 33.8 | 0.00 | 0.00 | 0.00 | 87 | 957.8 |
| 20260903120536 | 11 | 86 | 8.0 | 33.8 | 0.00 | 0.00 | 0.00 | 84 | 957.8 |
| 20260903120036 | 11 | 336 | 8.0 | 33.8 | 0.00 | 0.00 | 0.00 | 80 | 957.6 |
| 20260903115536 | 11 | 146 | 8.0 | 25.7 | 0.00 | 0.00 | 0.00 | 82 | 957.8 |
| 20260903115036 | 11 | 196 | 8.0 | 25.7 | 0.00 | 0.00 | 0.00 | 79 | 957.8 |
| 20260903114536 | 11 | 88 | 8.0 | 20.9 | 0.00 | 0.00 | 0.00 | 81 | 957.7 |
| 20260903114036 | 11 | 112 | 6.4 | 20.9 | 0.00 | 0.00 | 0.00 | 81 | 957.8 |
| 20260903113536 | 11 | 127 | 8.0 | 22.5 | 0.00 | 0.00 | 0.00 | 79 | 957.7 |
| 20260903113035 | 11 | 99 | 8.0 | 38.6 | 0.00 | 0.00 | 0.00 | 78 | 957.9 |
| 20260903112535 | 11 | 41 | 8.0 | 38.6 | 0.00 | 0.00 | 0.00 | 76 | 957.8 |
| 20260903112035 | 11 | 124 | 8.0 | 24.1 | 0.00 | 0.00 | 0.00 | 76 | 957.7 |
| 20260903111535 | 12 | 105 | 8.0 | 24.1 | 0.00 | 0.00 | 0.00 | 74 | 957.7 |
| 20260903111035 | 11 | 152 | 8.0 | 24.1 | 0.00 | 0.00 | 0.00 | 78 | 957.6 |
| 20260903110535 | 12 | 89 | 8.0 | 22.5 | 0.00 | 0.00 | 0.00 | 80 | 957.7 |
| 20260903110035 | 11 | 66 | 9.7 | 32.2 | 0.00 | 0.00 | 0.00 | 82 | 957.7 |
| 20260903105535 | 11 | 175 | 9.7 | 32.2 | 0.00 | 0.00 | 0.00 | 82 | 957.7 |
| 20260903105035 | 11 | 203 | 8.0 | 32.2 | 0.00 | 0.00 | 0.00 | 81 | 957.5 |
| 20260903104535 | 11 | 204 | 9.7 | 37.0 | 0.00 | 0.00 | 0.00 | 80 | 957.6 |
| 20260903104035 | 11 | 130 | 11.3 | 37.0 | 0.00 | 0.00 | 0.00 | 80 | 957.6 |
| 20260903103535 | 11 | 220 | 9.7 | 37.0 | 0.00 | 0.00 | 0.00 | 78 | 957.6 |
| 20260903103035 | 12 | 202 | 8.0 | 27.4 | 0.00 | 0.00 | 0.00 | 76 | 957.7 |
| 20260903102535 | 13 | 127 | 8.0 | 40.2 | 0.00 | 0.00 | 0.00 | 73 | 957.6 |
| 20260903102035 | 13 | 105 | 8.0 | 40.2 | 0.00 | 0.00 | 0.00 | 71 | 957.4 |
| 20260903101534 | 13 | 63 | 8.0 | 24.1 | 0.00 | 0.00 | 0.00 | 70 | 957.4 |
| 20260903101034 | 14 | 108 | 6.4 | 22.5 | 0.00 | 0.00 | 0.00 | 67 | 957.4 |
| 20260903100534 | 15 | 160 | 6.4 | 19.3 | 0.00 | 0.00 | 0.00 | 66 | 957.4 |
| 20260903100034 | 15 | 128 | 4.8 | 19.3 | 0.00 | 0.00 | 0.00 | 68 | 957.4 |
| 20260903095534 | 15 | 105 | 4.8 | 19.3 | 0.00 | 0.00 | 0.00 | 73 | 957.6 |
| 20260903095034 | 13 | 131 | 4.8 | 19.3 | 0.00 | 0.00 | 0.00 | 75 | 957.6 |
| 20260903094534 | 13 | 123 | 4.8 | 27.4 | 0.00 | 0.00 | 0.00 | 76 | 957.6 |
| 20260903094034 | 12 | 58 | 6.4 | 27.4 | 0.00 | 0.00 | 0.00 | 77 | 957.6 |
| 20260903093534 | 12 | 89 | 6.4 | 25.7 | 0.00 | 0.00 | 0.00 | 78 | 957.6 |
| 20260903093034 | 12 | 51 | 6.4 | 25.7 | 0.00 | 0.00 | 0.00 | 80 | 957.6 |
| 20260903092534 | 12 | 121 | 6.4 | 20.9 | 0.00 | 0.00 | 0.00 | 77 | 957.5 |
| 20260903092034 | 12 | 115 | 8.0 | 24.1 | 0.00 | 0.00 | 0.00 | 78 | 957.5 |
| 20260903091534 | 12 | 102 | 8.0 | 24.1 | 0.00 | 0.00 | 0.00 | 77 | 957.5 |
| 20260903091033 | 12 | 190 | 6.4 | 22.5 | 0.00 | 0.00 | 0.00 | 78 | 957.6 |
| 20260903090533 | 12 | 324 | 6.4 | 19.3 | 0.00 | 0.00 | 0.00 | 79 | 957.6 |
| 20260903090033 | 11 | 221 | 6.4 | 19.3 | 0.00 | 0.00 | 0.00 | 80 | 957.5 |
| 20260903085533 | 11 | 161 | 6.4 | 22.5 | 0.00 | 0.00 | 0.00 | 80 | 957.5 |
| 20260903085033 | 12 | 116 | 6.4 | 22.5 | 0.00 | 0.00 | 0.00 | 80 | 957.4 |
| 20260903084533 | 12 | 244 | 6.4 | 24.1 | 0.00 | 0.00 | 0.00 | 79 | 957.6 |
| 20260903084033 | 12 | 116 | 8.0 | 29.0 | 0.00 | 0.00 | 0.00 | 82 | 957.5 |
| 20260903083533 | 11 | 106 | 8.0 | 29.0 | 0.00 | 0.00 | 0.00 | 82 | 957.4 |
| 20260903083033 | 12 | 136 | 6.4 | 22.5 | 0.00 | 0.00 | 0.00 | 82 | 957.4 |
| 20260903082533 | 11 | 163 | 6.4 | 25.7 | 0.00 | 0.00 | 0.00 | 82 | 957.4 |
| 20260903082033 | 11 | 208 | 6.4 | 25.7 | 0.00 | 0.00 | 0.00 | 85 | 957.5 |
| 20260903081533 | 11 | 177 | 6.4 | 25.7 | 0.00 | 0.00 | 0.00 | 85 | 957.4 |
| 20260903081033 | 11 | 127 | 6.4 | 17.7 | 0.00 | 0.00 | 0.00 | 85 | 957.4 |
| 20260903080533 | 11 | 82 | 6.4 | 17.7 | 0.00 | 0.00 | 0.00 | 85 | 957.4 |
| 20260903080033 | 11 | 70 | 6.4 | 17.7 | 0.00 | 0.00 | 0.00 | 86 | 957.5 |
| 20260903075533 | 11 | 100 | 4.8 | 22.5 | 0.00 | 0.00 | 0.00 | 86 | 957.4 |
| 20260903075033 | 11 | 77 | 4.8 | 22.5 | 0.00 | 0.00 | 0.00 | 86 | 957.4 |
| 20260903074533 | 11 | 210 | 4.8 | 16.1 | 0.00 | 0.00 | 0.00 | 86 | 957.5 |
| 20260903074032 | 11 | 168 | 4.8 | 17.7 | 0.00 | 0.00 | 0.00 | 87 | 957.4 |
| 20260903073532 | 11 | 152 | 4.8 | 17.7 | 0.00 | 0.00 | 0.00 | 86 | 957.4 |
| 20260903073032 | 11 | 137 | 4.8 | 12.9 | 0.00 | 0.00 | 0.00 | 88 | 957.4 |
| 20260903072532 | 10 | 95 | 4.8 | 16.1 | 0.00 | 0.00 | 0.00 | 91 | 957.5 |
| 20260903072032 | 10 | 110 | 4.8 | 16.1 | 0.00 | 0.00 | 0.00 | 92 | 957.6 |
| 20260903071532 | 10 | 89 | 4.8 | 14.5 | 0.00 | 0.00 | 0.00 | 91 | 957.6 |
| 20260903071032 | 10 | 104 | 4.8 | 14.5 | 0.00 | 0.00 | 0.00 | 91 | 957.6 |
| 20260903070532 | 10 | 114 | 4.8 | 14.5 | 0.00 | 0.00 | 0.00 | 90 | 957.6 |
| 20260903070032 | 10 | 78 | 3.2 | 12.9 | 0.00 | 0.00 | 0.00 | 93 | 957.7 |
| 20260903065532 | 10 | 223 | 3.2 | 17.7 | 0.00 | 0.00 | 0.00 | 92 | 957.7 |
| 20260903065032 | 9 | 123 | 3.2 | 17.7 | 0.00 | 0.00 | 0.00 | 94 | 957.6 |
| 20260903064532 | 9 | 91 | 4.8 | 17.7 | 0.00 | 0.00 | 0.00 | 94 | 957.6 |
| 20260903064032 | 9 | 50 | 4.8 | 17.7 | 0.00 | 0.00 | 0.00 | 94 | 957.6 |
| 20260903063532 | 9 | 169 | 4.8 | 19.3 | 0.00 | 0.00 | 0.00 | 95 | 957.6 |
| 20260903063031 | 9 | 143 | 4.8 | 19.3 | 0.00 | 0.00 | 0.00 | 95 | 957.5 |
| 20260903062531 | 8 | 107 | 4.8 | 16.1 | 0.00 | 0.00 | 0.00 | 95 | 957.5 |
| 20260903062031 | 8 | 170 | 4.8 | 17.7 | 0.00 | 0.00 | 0.00 | 95 | 957.5 |
| 20260903061531 | 9 | 107 | 4.8 | 17.7 | 0.00 | 0.00 | 0.00 | 95 | 957.6 |
| 20260903061031 | 8 | 111 | 4.8 | 19.3 | 0.00 | 0.00 | 0.00 | 96 | 957.5 |
| 20260903060531 | 9 | 83 | 6.4 | 20.9 | 0.00 | 0.00 | 0.00 | 96 | 957.6 |
| 20260903060031 | 9 | 120 | 6.4 | 20.9 | 0.00 | 0.00 | 0.00 | 96 | 957.6 |
| 20260903055531 | 9 | 99 | 6.4 | 20.9 | 0.00 | 0.00 | 0.00 | 95 | 957.5 |
| 20260903055031 | 10 | 107 | 4.8 | 20.9 | 0.00 | 0.00 | 0.00 | 94 | 957.4 |
| 20260903054531 | 9 | 148 | 4.8 | 14.5 | 0.00 | 0.00 | 0.00 | 95 | 957.5 |
| 20260903054031 | 9 | 44 | 4.8 | 14.5 | 0.00 | 0.00 | 0.00 | 96 | 957.5 |
| 20260903053531 | 9 | 107 | 4.8 | 19.3 | 0.00 | 0.00 | 0.00 | 95 | 957.4 |
| 20260903053031 | 8 | 104 | 4.8 | 19.3 | 0.00 | 0.00 | 0.00 | 94 | 957.4 |
| 20260903052531 | 8 | 135 | 4.8 | 19.3 | 0.00 | 0.00 | 0.00 | 93 | 957.4 |
| 20260903052031 | 8 | 109 | 4.8 | 20.9 | 0.00 | 0.00 | 0.00 | 92 | 957.2 |
| 20260903051530 | 8 | 114 | 4.8 | 20.9 | 0.00 | 0.00 | 0.00 | 90 | 957.2 |
| 20260903051030 | 10 | 132 | 4.8 | 20.9 | 0.00 | 0.00 | 0.00 | 88 | 957.2 |
| 20260903050530 | 11 | 104 | 3.2 | 12.9 | 0.00 | 0.00 | 0.00 | 87 | 957.4 |
| 20260903050030 | 10 | 119 | 3.2 | 11.3 | 0.00 | 0.00 | 0.00 | 89 | 957.6 |
| 20260903045530 | 8 | 127 | 3.2 | 11.3 | 0.00 | 0.00 | 0.00 | 93 | 957.5 |
| 20260903045030 | 9 | 113 | 3.2 | 12.9 | 0.00 | 0.00 | 0.00 | 92 | 957.4 |
| 20260903044530 | 9 | 123 | 3.2 | 12.9 | 0.00 | 0.00 | 0.00 | 92 | 957.4 |
| 20260903044030 | 8 | 155 | 3.2 | 16.1 | 0.00 | 0.00 | 0.00 | 96 | 957.3 |
| 20260903043530 | 8 | 95 | 3.2 | 16.1 | 0.00 | 0.00 | 0.00 | 97 | 957.4 |
| 20260903043030 | 7 | 112 | 4.8 | 12.9 | 0.00 | 0.00 | 0.00 | 99 | 957.4 |
| 20260903042530 | 7 | 223 | 4.8 | 12.9 | 0.00 | 0.00 | 0.00 | 99 | 957.2 |
| 20260903042030 | 7 | 139 | 3.2 | 11.3 | 0.00 | 0.00 | 0.00 | 98 | 957.2 |
| 20260903041530 | 6 | 38 | 3.2 | 11.3 | 0.00 | 0.00 | 0.00 | 98 | 957.3 |
| 20260903041029 | 6 | 71 | 3.2 | 12.9 | 0.00 | 0.00 | 0.00 | 99 | 957.2 |
| 20260903040529 | 6 | 154 | 3.2 | 12.9 | 0.00 | 0.00 | 0.00 | 99 | 957.2 |
| 20260903040029 | 6 | 93 | 3.2 | 12.9 | 0.00 | 0.00 | 0.00 | 99 | 957.1 |
| 20260903035529 | 6 | 104 | 3.2 | 12.9 | 0.00 | 0.00 | 0.00 | 10 | 957.1 |
| 20260903035029 | 6 | 44 | 4.8 | 17.7 | 0.00 | 0.00 | 0.00 | 10 | 957.1 |
| 20260903034529 | 6 | 64 | 4.8 | 17.7 | 0.00 | 0.00 | 0.00 | 10 | 957.1 |
| 20260903034029 | 6 | 47 | 4.8 | 17.7 | 0.00 | 0.00 | 0.00 | 10 | 957.1 |
| 20260903033529 | 6 | 53 | 4.8 | 17.7 | 0.00 | 0.00 | 0.00 | 10 | 957.1 |
| 20260903033029 | 6 | 43 | 4.8 | 22.5 | 0.00 | 0.00 | 0.00 | 10 | 957.1 |
| 20260903032529 | 6 | 128 | 4.8 | 22.5 | 0.00 | 0.00 | 0.00 | 10 | 957.0 |
| 20260903032029 | 6 | 154 | 4.8 | 17.7 | 0.00 | 0.00 | 0.00 | 10 | 957.2 |
| 20260903031529 | 6 | 93 | 3.2 | 17.7 | 0.00 | 0.00 | 0.00 | 99 | 957.2 |
| 20260903031029 | 6 | 74 | 3.2 | 12.9 | 0.00 | 0.00 | 0.00 | 99 | 957.2 |
| 20260903030529 | 6 | 205 | 3.2 | 11.3 | 0.00 | 0.00 | 0.00 | 99 | 957.2 |
| 20260903030029 | 6 | 119 | 3.2 | 9.7 | 0.00 | 0.00 | 0.00 | 10 | 957.1 |
| 20260903025528 | 6 | 59 | 3.2 | 14.5 | 0.00 | 0.00 | 0.00 | 10 | 957.1 |
| 20260903025028 | 6 | 89 | 3.2 | 14.5 | 0.00 | 0.00 | 0.00 | 99 | 957.1 |
| 20260903024528 | 6 | 88 | 4.8 | 12.9 | 0.00 | 0.00 | 0.00 | 99 | 957.1 |
| 20260903024028 | 6 | 142 | 4.8 | 14.5 | 0.00 | 0.00 | 0.00 | 99 | 957.1 |
| 20260903023528 | 6 | 46 | 4.8 | 14.5 | 0.00 | 0.00 | 0.00 | 99 | 957.1 |
| 20260903023028 | 6 | 135 | 4.8 | 22.5 | 0.00 | 0.00 | 0.00 | 99 | 957.3 |
| 20260903022528 | 6 | 63 | 4.8 | 22.5 | 0.00 | 0.00 | 0.00 | 99 | 957.3 |
| 20260903022028 | 7 | 68 | 4.8 | 12.9 | 0.00 | 0.00 | 0.00 | 99 | 957.2 |
| 20260903021528 | 7 | 82 | 4.8 | 14.5 | 0.00 | 0.00 | 0.00 | 98 | 957.2 |
| 20260903021028 | 7 | 359 | 4.8 | 14.5 | 0.00 | 0.00 | 0.00 | 99 | 957.3 |
| 20260903020528 | 7 | 132 | 4.8 | 11.3 | 0.00 | 0.00 | 0.00 | 98 | 957.3 |
| 20260903020028 | 7 | 2 | 3.2 | 11.3 | 0.00 | 0.00 | 0.00 | 98 | 957.3 |
| 20260903015528 | 6 | 26 | 3.2 | 9.7 | 0.00 | 0.00 | 0.00 | 98 | 957.3 |
| 20260903015028 | 6 | 156 | 3.2 | 12.9 | 0.00 | 0.00 | 0.00 | 98 | 957.2 |
| 20260903014528 | 7 | 85 | 3.2 | 12.9 | 0.00 | 0.00 | 0.00 | 98 | 957.3 |
| 20260903014028 | 7 | 62 | 3.2 | 12.9 | 0.00 | 0.00 | 0.00 | 98 | 957.3 |
| 20260903013527 | 7 | 46 | 3.2 | 12.9 | 0.00 | 0.00 | 0.00 | 98 | 957.3 |
| 20260903013027 | 7 | 71 | 3.2 | 11.3 | 0.00 | 0.00 | 0.00 | 98 | 957.3 |
| 20260903012527 | 7 | 107 | 3.2 | 12.9 | 0.00 | 0.00 | 0.00 | 98 | 957.2 |
| 20260903012027 | 7 | 34 | 3.2 | 12.9 | 0.00 | 0.00 | 0.00 | 98 | 957.2 |
| 20260903011527 | 7 | 151 | 3.2 | 12.9 | 0.00 | 0.00 | 0.00 | 98 | 957.2 |
| 20260903011027 | 7 | 17 | 3.2 | 19.3 | 0.00 | 0.00 | 0.00 | 98 | 957.2 |
| 20260903010527 | 7 | 143 | 3.2 | 19.3 | 0.00 | 0.00 | 0.00 | 98 | 957.2 |
| 20260903010027 | 7 | 123 | 4.8 | 12.9 | 0.00 | 0.00 | 0.00 | 98 | 957.3 |
| 20260903005527 | 7 | 111 | 3.2 | 14.5 | 0.00 | 0.00 | 0.00 | 98 | 957.2 |
| 20260903005027 | 7 | 67 | 3.2 | 14.5 | 0.00 | 0.00 | 0.00 | 98 | 957.1 |
| 20260903004527 | 7 | 132 | 3.2 | 14.5 | 0.00 | 0.00 | 0.00 | 98 | 957.2 |
| 20260903004027 | 7 | 4 | 3.2 | 9.7 | 0.00 | 0.00 | 0.00 | 98 | 957.2 |
| 20260903003527 | 7 | 47 | 3.2 | 16.1 | 0.00 | 0.00 | 0.00 | 98 | 957.2 |
| 20260903003027 | 7 | 87 | 3.2 | 16.1 | 0.00 | 0.00 | 0.00 | 98 | 957.1 |
| 20260903002527 | 7 | 62 | 3.2 | 14.5 | 0.00 | 0.00 | 0.00 | 98 | 957.3 |
| 20260903002027 | 7 | 154 | 3.2 | 12.9 | 0.00 | 0.00 | 0.00 | 98 | 957.2 |
| 20260903001527 | 7 | 114 | 3.2 | 12.9 | 0.00 | 0.00 | 0.00 | 98 | 957.0 |
| 20260903001026 | 7 | 86 | 3.2 | 9.7 | 0.00 | 0.00 | 0.00 | 98 | 957.0 |
| 20260903000526 | 7 | 53 | 3.2 | 9.7 | 0.00 | 0.00 | 0.00 | 98 | 957.0 |
| 20260903000026 | 7 | 83 | 3.2 | 8.0 | 0.00 | 0.00 | 0.00 | 98 | 957.1 |
| 20260902235526 | 7 | 137 | 3.2 | 9.7 | 0.00 | 0.00 | 0.00 | 98 | 957.2 |
| 20260902235026 | 7 | 57 | 3.2 | 9.7 | 0.00 | 0.00 | 0.00 | 98 | 957.0 |
| 20260902234526 | 7 | 114 | 3.2 | 11.3 | 0.00 | 0.00 | 0.00 | 98 | 957.0 |
| 20260902234026 | 7 | 89 | 3.2 | 14.5 | 0.00 | 0.00 | 0.00 | 98 | 957.0 |
| 20260902233526 | 7 | 103 | 4.8 | 14.5 | 0.00 | 0.00 | 0.00 | 98 | 957.1 |
| 20260902233026 | 7 | 89 | 4.8 | 16.1 | 0.00 | 0.00 | 0.00 | 98 | 957.0 |
| 20260902232526 | 7 | 77 | 4.8 | 16.1 | 0.00 | 0.00 | 0.00 | 98 | 957.0 |
| 20260902232026 | 7 | 111 | 4.8 | 14.5 | 0.00 | 0.00 | 0.00 | 97 | 957.0 |
| 20260902231526 | 7 | 122 | 4.8 | 14.5 | 0.00 | 0.00 | 0.00 | 97 | 957.1 |
| 20260902231025 | 7 | 182 | 4.8 | 14.5 | 0.00 | 0.00 | 0.00 | 97 | 957.1 |
| 20260902230526 | 7 | 226 | 4.8 | 12.9 | 0.00 | 0.00 | 0.00 | 97 | 957.1 |
| 20260902230025 | 8 | 264 | 4.8 | 14.5 | 0.00 | 0.00 | 0.00 | 97 | 957.1 |
| 20260902225525 | 8 | 68 | 3.2 | 14.5 | 0.00 | 0.00 | 0.00 | 97 | 957.1 |
| 20260902225025 | 8 | 282 | 4.8 | 17.7 | 0.00 | 0.00 | 0.00 | 96 | 957.2 |
| 20260902224525 | 8 | 73 | 4.8 | 17.7 | 0.00 | 0.00 | 0.00 | 96 | 957.2 |
| 20260902224025 | 8 | 124 | 4.8 | 16.1 | 0.00 | 0.00 | 0.00 | 95 | 957.1 |
| 20260902223525 | 8 | 108 | 4.8 | 14.5 | 0.00 | 0.00 | 0.00 | 95 | 957.1 |
| 20260902223025 | 8 | 111 | 4.8 | 22.5 | 0.00 | 0.00 | 0.00 | 95 | 957.0 |
| 20260902222525 | 8 | 92 | 6.4 | 22.5 | 0.00 | 0.00 | 0.00 | 95 | 957.2 |
| 20260902222025 | 8 | 117 | 6.4 | 17.7 | 0.00 | 0.00 | 0.00 | 95 | 957.0 |
| 20260902221525 | 8 | 199 | 4.8 | 16.1 | 0.00 | 0.00 | 0.00 | 95 | 957.0 |
| 20260902221025 | 8 | 215 | 4.8 | 12.9 | 0.00 | 0.00 | 0.00 | 95 | 957.0 |
| 20260902220525 | 8 | 127 | 4.8 | 12.9 | 0.00 | 0.00 | 0.00 | 95 | 957.0 |
| 20260902220025 | 9 | 200 | 4.8 | 12.9 | 0.00 | 0.00 | 0.00 | 96 | 956.9 |
| 20260902215525 | 9 | 184 | 3.2 | 12.9 | 0.00 | 0.00 | 0.00 | 96 | 956.9 |
| 20260902215025 | 9 | 241 | 3.2 | 12.9 | 0.00 | 0.00 | 0.00 | 96 | 956.9 |
| 20260902214524 | 9 | 251 | 4.8 | 11.3 | 0.00 | 0.00 | 0.00 | 96 | 956.9 |
| 20260902214024 | 9 | 212 | 6.4 | 14.5 | 0.00 | 0.00 | 0.00 | 96 | 956.9 |
| 20260902213524 | 9 | 233 | 4.8 | 14.5 | 0.00 | 0.00 | 0.00 | 96 | 956.9 |
| 20260902213024 | 9 | 230 | 4.8 | 14.5 | 0.00 | 0.00 | 0.00 | 96 | 957.0 |
| 20260902212524 | 8 | 119 | 3.2 | 14.5 | 0.00 | 0.00 | 0.00 | 98 | 956.9 |
| 20260902212024 | 8 | 19 | 1.6 | 8.0 | 0.00 | 0.00 | 0.00 | 99 | 956.9 |
| 20260902211524 | 8 | 136 | 1.6 | 4.8 | 0.00 | 0.00 | 0.00 | 99 | 956.9 |
| 20260902211024 | 8 | 214 | 1.6 | 6.4 | 0.00 | 0.00 | 0.00 | 98 | 957.1 |
| 20260902210524 | 8 | 152 | 1.6 | 6.4 | 0.00 | 0.00 | 0.00 | 98 | 957.0 |
| 20260902210024 | 8 | 120 | 0.0 | 3.2 | 0.00 | 0.00 | 0.00 | 98 | 956.9 |
| 20260902205524 | 8 | 264 | 0.0 | 3.2 | 0.00 | 0.00 | 0.00 | 97 | 956.9 |
| 20260902205024 | 8 | 255 | 0.0 | 3.2 | 0.00 | 0.00 | 0.00 | 97 | 956.9 |
| 20260902204524 | 8 | 39 | 1.6 | 3.2 | 0.00 | 0.00 | 0.00 | 97 | 957.0 |
| 20260902204024 | 8 | 310 | 1.6 | 3.2 | 0.00 | 0.00 | 0.00 | 96 | 956.9 |
| 20260902203524 | 8 | 297 | 0.0 | 3.2 | 0.00 | 0.00 | 0.00 | 95 | 957.0 |
| 20260902203024 | 9 | 278 | 0.0 | 3.2 | 0.00 | 0.00 | 0.00 | 93 | 957.1 |
| 20260902202523 | 9 | 126 | 0.0 | 3.2 | 0.00 | 0.00 | 0.00 | 92 | 957.1 |
| 20260902202023 | 9 | 347 | 0.0 | 3.2 | 0.00 | 0.00 | 0.00 | 91 | 957.0 |
| 20260902201523 | 10 | 60 | 1.6 | 8.0 | 0.00 | 0.00 | 0.00 | 90 | 957.2 |
| 20260902201023 | 10 | 52 | 3.2 | 11.3 | 0.00 | 0.00 | 0.00 | 89 | 957.1 |
| 20260902200523 | 10 | 156 | 4.8 | 11.3 | 0.00 | 0.00 | 0.00 | 89 | 957.1 |
| 20260902200023 | 10 | 228 | 6.4 | 11.3 | 0.00 | 0.00 | 0.00 | 89 | 957.2 |
| 20260902195523 | 10 | 229 | 6.4 | 11.3 | 0.00 | 0.00 | 0.00 | 89 | 957.2 |
| 20260902195023 | 10 | 236 | 6.4 | 11.3 | 0.00 | 0.00 | 0.00 | 89 | 957.2 |
| 20260902194523 | 10 | 238 | 6.4 | 12.9 | 0.00 | 0.00 | 0.00 | 89 | 957.2 |
| 20260902194023 | 10 | 229 | 6.4 | 12.9 | 0.00 | 0.00 | 0.00 | 89 | 957.2 |
| 20260902193523 | 10 | 234 | 6.4 | 12.9 | 0.00 | 0.00 | 0.00 | 90 | 957.2 |
| 20260902193023 | 10 | 224 | 8.0 | 14.5 | 0.00 | 0.00 | 0.00 | 90 | 957.2 |
| 20260902192523 | 10 | 228 | 8.0 | 14.5 | 0.00 | 0.00 | 0.00 | 92 | 957.2 |
| 20260902192023 | 10 | 234 | 4.8 | 11.3 | 0.00 | 0.00 | 0.00 | 94 | 957.2 |
| 20260902191523 | 10 | 228 | 3.2 | 11.3 | 0.00 | 0.00 | 0.00 | 98 | 957.2 |
| 20260902191023 | 9 | 186 | 3.2 | 9.7 | 0.00 | 0.00 | 0.00 | 98 | 957.2 |
| 20260902190523 | 9 | 69 | 3.2 | 8.0 | 0.00 | 0.00 | 0.00 | 97 | 957.2 |
| 20260902190022 | 9 | 52 | 3.2 | 8.0 | 0.00 | 0.00 | 0.00 | 97 | 957.1 |
| 20260902185522 | 10 | 174 | 3.2 | 6.4 | 0.00 | 0.00 | 0.00 | 95 | 957.0 |
| 20260902185022 | 10 | 78 | 3.2 | 6.4 | 0.00 | 0.00 | 0.00 | 95 | 956.8 |
| 20260902184522 | 10 | 71 | 1.6 | 6.4 | 0.00 | 0.00 | 0.00 | 95 | 956.6 |
| 20260902184022 | 10 | 19 | 1.6 | 3.2 | 0.00 | 0.00 | 0.00 | 95 | 956.8 |
| 20260902183522 | 10 | 355 | 1.6 | 6.4 | 0.00 | 0.00 | 0.00 | 94 | 956.8 |
| 20260902183022 | 10 | 336 | 3.2 | 6.4 | 0.00 | 0.00 | 0.00 | 94 | 956.9 |
| 20260902182522 | 10 | 288 | 3.2 | 9.7 | 0.00 | 0.00 | 0.00 | 93 | 956.8 |
| 20260902182022 | 10 | 311 | 3.2 | 11.3 | 0.00 | 0.00 | 0.00 | 92 | 956.7 |
| 20260902181522 | 11 | 249 | 4.8 | 14.5 | 0.00 | 0.00 | 0.00 | 91 | 956.9 |
| 20260902181022 | 11 | 234 | 6.4 | 20.9 | 0.00 | 0.00 | 0.00 | 91 | 956.8 |
| 20260902180522 | 11 | 241 | 8.0 | 20.9 | 0.00 | 0.00 | 0.00 | 92 | 956.8 |
| 20260902180022 | 11 | 236 | 8.0 | 20.9 | 0.00 | 0.00 | 0.00 | 93 | 956.7 |
| 20260902175522 | 11 | 209 | 8.0 | 19.3 | 0.00 | 0.00 | 0.00 | 93 | 956.7 |
| 20260902175022 | 11 | 236 | 6.4 | 17.7 | 0.00 | 0.00 | 0.00 | 91 | 956.7 |
| 20260902174521 | 11 | 242 | 6.4 | 16.1 | 0.00 | 0.00 | 0.00 | 91 | 956.5 |
| 20260902174021 | 11 | 268 | 6.4 | 12.9 | 0.00 | 0.00 | 0.00 | 93 | 956.4 |
| 20260902173521 | 11 | 285 | 6.4 | 14.5 | 0.00 | 0.00 | 0.00 | 92 | 956.4 |
| 20260902173021 | 11 | 297 | 6.4 | 16.1 | 0.00 | 0.00 | 0.00 | 91 | 956.4 |
| 20260902172521 | 11 | 264 | 6.4 | 16.1 | 0.00 | 0.00 | 0.00 | 90 | 956.4 |
| 20260902172021 | 12 | 265 | 8.0 | 17.7 | 0.00 | 0.00 | 0.00 | 90 | 956.4 |
| 20260902171521 | 12 | 284 | 8.0 | 17.7 | 0.00 | 0.00 | 0.00 | 89 | 956.5 |
| 20260902171021 | 12 | 286 | 8.0 | 19.3 | 0.00 | 0.00 | 0.00 | 88 | 956.5 |
| 20260902170521 | 12 | 269 | 8.0 | 19.3 | 0.00 | 0.00 | 0.00 | 87 | 956.5 |
| 20260902170021 | 13 | 246 | 6.4 | 17.7 | 0.00 | 0.00 | 0.00 | 88 | 956.5 |
| 20260902165521 | 13 | 255 | 6.4 | 17.7 | 0.00 | 0.00 | 0.00 | 87 | 956.2 |
| 20260902165021 | 13 | 216 | 6.4 | 16.1 | 0.00 | 0.00 | 0.00 | 87 | 956.3 |
| 20260902164521 | 13 | 273 | 4.8 | 14.5 | 0.00 | 0.00 | 0.00 | 85 | 956.4 |
| 20260902164021 | 14 | 250 | 3.2 | 14.5 | 0.00 | 0.00 | 0.00 | 84 | 956.5 |
| 20260902163521 | 14 | 128 | 3.2 | 9.7 | 0.00 | 0.00 | 0.00 | 83 | 956.5 |
| 20260902163021 | 14 | 228 | 4.8 | 9.7 | 0.00 | 0.00 | 0.00 | 82 | 956.4 |
| 20260902162520 | 15 | 297 | 4.8 | 11.3 | 0.00 | 0.00 | 0.00 | 80 | 956.3 |
| 20260902162020 | 15 | 304 | 4.8 | 14.5 | 0.00 | 0.00 | 0.00 | 78 | 956.3 |
| 20260902161520 | 15 | 269 | 4.8 | 14.5 | 0.00 | 0.00 | 0.00 | 74 | 956.3 |
| 20260902161020 | 15 | 249 | 3.2 | 9.7 | 0.00 | 0.00 | 0.00 | 75 | 956.3 |
| 20260902160520 | 15 | 233 | 4.8 | 17.7 | 0.00 | 0.00 | 0.00 | 74 | 956.1 |
| 20260902160020 | 15 | 160 | 8.0 | 24.1 | 0.00 | 0.00 | 0.00 | 74 | 956.1 |
| 20260902155520 | 15 | 113 | 11.3 | 27.4 | 0.00 | 0.00 | 0.00 | 75 | 956.0 |
| 20260902155020 | 15 | 114 | 14.5 | 29.0 | 0.00 | 0.00 | 0.00 | 75 | 955.9 |
| 20260902154520 | 15 | 106 | 14.5 | 29.0 | 0.00 | 0.00 | 0.00 | 72 | 955.9 |
| 20260902154020 | 16 | 109 | 14.5 | 27.4 | 0.00 | 0.00 | 0.00 | 70 | 956.0 |
| 20260902153520 | 15 | 96 | 14.5 | 25.7 | 0.00 | 0.00 | 0.00 | 75 | 956.0 |
| 20260902153020 | 15 | 97 | 14.5 | 24.1 | 0.00 | 0.00 | 0.00 | 73 | 956.0 |
| 20260902152520 | 15 | 105 | 11.3 | 24.1 | 0.00 | 0.00 | 0.00 | 74 | 956.0 |
| 20260902152020 | 16 | 91 | 9.7 | 20.9 | 0.00 | 0.00 | 0.00 | 74 | 956.1 |
| 20260902151519 | 15 | 109 | 11.3 | 20.9 | 0.00 | 0.00 | 0.00 | 74 | 956.0 |
| 20260902151019 | 15 | 90 | 9.7 | 20.9 | 0.00 | 0.00 | 0.00 | 75 | 956.0 |
| 20260902150519 | 16 | 85 | 9.7 | 20.9 | 0.00 | 0.00 | 0.00 | 77 | 955.9 |
| 20260902150019 | 15 | 65 | 8.0 | 16.1 | 0.00 | 0.00 | 0.00 | 78 | 955.8 |
| 20260902145519 | 16 | 100 | 8.0 | 14.5 | 0.00 | 0.00 | 0.00 | 75 | 955.9 |
| 20260902145019 | 16 | 77 | 4.8 | 17.7 | 0.00 | 0.00 | 0.00 | 73 | 956.1 |
| 20260902144519 | 16 | 176 | 4.8 | 17.7 | 0.00 | 0.00 | 0.00 | 66 | 956.1 |
| 20260902144019 | 16 | 54 | 4.8 | 16.1 | 0.00 | 0.00 | 0.00 | 75 | 956.5 |
| 20260902143519 | 16 | 212 | 6.4 | 16.1 | 0.00 | 0.00 | 0.00 | 75 | 956.4 |
| 20260902143019 | 16 | 245 | 6.4 | 16.1 | 0.00 | 0.00 | 0.00 | 73 | 956.4 |
| 20260902142519 | 16 | 232 | 4.8 | 17.7 | 0.00 | 0.00 | 0.00 | 71 | 956.4 |
| 20260902142019 | 17 | 260 | 8.0 | 24.1 | 0.00 | 0.00 | 0.00 | 70 | 956.5 |
| 20260902141519 | 17 | 175 | 12.9 | 27.4 | 0.00 | 0.00 | 0.00 | 70 | 956.4 |
| 20260902141019 | 17 | 104 | 12.9 | 27.4 | 0.00 | 0.00 | 0.00 | 69 | 956.4 |
| 20260902140519 | 17 | 100 | 12.9 | 25.7 | 0.00 | 0.00 | 0.00 | 68 | 956.5 |
| 20260902140018 | 17 | 226 | 11.3 | 25.7 | 0.00 | 0.00 | 0.00 | 68 | 956.5 |
| 20260902135518 | 18 | 97 | 8.0 | 25.7 | 0.00 | 0.00 | 0.00 | 66 | 956.5 |
| 20260902135018 | 17 | 118 | 8.0 | 22.5 | 0.00 | 0.00 | 0.00 | 68 | 956.6 |
| 20260902134518 | 17 | 146 | 12.9 | 24.1 | 0.00 | 0.00 | 0.00 | 68 | 956.6 |
| 20260902134018 | 17 | 109 | 12.9 | 24.1 | 0.00 | 0.00 | 0.00 | 66 | 956.7 |
| 20260902133518 | 18 | 108 | 12.9 | 22.5 | 0.00 | 0.00 | 0.00 | 64 | 956.5 |
| 20260902133018 | 18 | 75 | 11.3 | 22.5 | 0.00 | 0.00 | 0.00 | 65 | 956.6 |
| 20260902132518 | 17 | 115 | 9.7 | 22.5 | 0.00 | 0.00 | 0.00 | 67 | 956.5 |
| 20260902132018 | 17 | 74 | 9.7 | 19.3 | 0.00 | 0.00 | 0.00 | 70 | 956.7 |
| 20260902131518 | 16 | 104 | 11.3 | 19.3 | 0.00 | 0.00 | 0.00 | 71 | 956.7 |
| 20260902131018 | 16 | 112 | 11.3 | 20.9 | 0.00 | 0.00 | 0.00 | 70 | 956.8 |
| 20260902130518 | 17 | 107 | 11.3 | 20.9 | 0.00 | 0.00 | 0.00 | 67 | 956.9 |
| 20260902130018 | 18 | 86 | 9.7 | 19.3 | 0.00 | 0.00 | 0.00 | 68 | 957.0 |
| 20260902125518 | 17 | 113 | 9.7 | 19.3 | 0.00 | 0.00 | 0.00 | 66 | 957.0 |
| 20260902125017 | 17 | 107 | 9.7 | 20.9 | 0.00 | 0.00 | 0.00 | 65 | 956.9 |
| 20260902124517 | 18 | 95 | 11.3 | 24.1 | 0.00 | 0.00 | 0.00 | 70 | 957.0 |
| 20260902124017 | 17 | 134 | 11.3 | 24.1 | 0.00 | 0.00 | 0.00 | 71 | 957.1 |
| 20260902123517 | 17 | 66 | 12.9 | 24.1 | 0.00 | 0.00 | 0.00 | 67 | 957.1 |
| 20260902123017 | 17 | 109 | 12.9 | 24.1 | 0.00 | 0.00 | 0.00 | 68 | 957.1 |
| 20260902122517 | 18 | 164 | 12.9 | 24.1 | 0.00 | 0.00 | 0.00 | 68 | 957.2 |